DW2973 Weather Reports


time (UTC)temp
C
wind
direction
speed
KPH
gust
KPH
rain 1hr
cm
rain 24hr
cm
rain mn
cm
humidity
%
barometer
mb
20260506113053 13 19 1.6 0.0 0.00 0.00 0.00 57 1009.9
20260506111544 13 9 1.6 0.0 0.00 0.00 0.00 58 1009.9
20260506110052 13 9 0.0 0.0 0.00 0.00 0.00 62 1010.0
20260506104548 12 14 1.6 0.0 0.00 0.00 0.00 63 1010.0
20260506103048 13 13 0.0 0.0 0.00 0.00 0.00 60 1010.2
20260506101550 12 11 1.6 0.0 0.00 0.00 0.00 63 1010.1
20260506100057 12 44 1.6 0.0 0.00 0.00 0.00 62 1010.1
20260506094536 12 19 1.6 0.0 0.00 0.00 0.00 62 1010.1
20260506093042 11 11 1.6 0.0 0.00 0.00 0.00 62 1010.1
20260506091537 11 19 1.6 0.0 0.00 0.00 0.00 62 1010.2
20260506090033 11 36 3.2 0.0 0.00 0.00 0.00 58 1010.1
20260506084540 12 18 1.6 0.0 0.00 0.00 0.00 60 1010.1
20260506083033 12 5 1.6 0.0 0.00 0.00 0.00 58 1009.9
20260506081540 12 11 1.6 0.0 0.00 0.00 0.00 58 1009.7
20260506073038 11 43 0.0 0.0 0.00 0.00 0.00 47 1009.8
20260506071525 11 44 0.0 0.0 0.00 0.00 0.00 50 1009.8
20260506061514 10 24 0.0 0.0 0.00 0.00 0.00 53 1010.0
20260506044703 5 317 0.0 0.0 0.00 0.00 0.00 69 1010.3
20260506043107 5 302 0.0 0.0 0.00 0.00 0.00 70 1010.2
20260506041603 4 340 0.0 0.0 0.00 0.00 0.00 72 1010.3
20260506040055 4 340 0.0 0.0 0.00 0.00 0.00 70 1010.2
20260506034625 3 9 0.0 0.0 0.00 0.00 0.00 70 1010.2
20260506033101 3 9 0.0 0.0 0.00 0.00 0.00 71 1010.3
20260506031553 3 9 0.0 0.0 0.00 0.00 0.00 70 1010.3
20260506030052 3 9 0.0 0.0 0.00 0.00 0.00 70 1010.5
20260506024551 4 9 0.0 0.0 0.00 0.00 0.00 70 1010.5
20260506023106 4 9 0.0 0.0 0.00 0.00 0.00 70 1010.6
20260506021548 5 9 0.0 0.0 0.00 0.00 0.00 69 1010.7
20260506020047 4 9 0.0 0.0 0.00 0.00 0.00 70 1010.8
20260506014545 5 9 0.0 0.0 0.00 0.00 0.00 70 1010.8
20260506013043 5 9 0.0 0.0 0.00 0.00 0.00 70 1010.6
20260506011540 5 9 0.0 0.0 0.00 0.00 0.00 72 1010.5
20260506010045 5 9 0.0 0.0 0.00 0.00 0.00 74 1010.4
20260506004558 5 9 0.0 0.0 0.00 0.00 0.00 76 1010.3
20260506003045 5 9 0.0 0.0 0.00 0.00 0.00 78 1010.4
20260506001539 5 9 0.0 0.0 0.00 0.00 0.00 79 1010.3
20260506000034 5 9 0.0 0.0 0.00 0.00 0.00 80 1010.3
20260505234555 5 9 0.0 0.0 0.00 0.00 0.00 80 1010.3
20260505233037 6 9 0.0 0.0 0.00 0.00 0.00 80 1010.2
20260505231534 6 9 0.0 0.0 0.00 0.00 0.00 81 1010.3
20260505230038 5 9 0.0 0.0 0.00 0.00 0.00 82 1010.3
20260505224529 5 9 0.0 0.0 0.00 0.00 0.00 83 1010.5
20260505223025 5 9 0.0 0.0 0.00 0.00 0.00 83 1010.7
20260505221524 5 9 0.0 0.0 0.00 0.00 0.00 83 1010.7
20260505220030 5 9 0.0 0.0 0.00 0.00 0.00 82 1010.7
20260505214524 5 9 0.0 0.0 0.00 0.00 0.00 82 1010.7
20260505213021 5 9 0.0 0.0 0.00 0.00 0.00 82 1010.7
20260505211521 5 9 0.0 0.0 0.00 0.00 0.00 82 1010.8
20260505210019 5 9 0.0 0.0 0.00 0.00 0.00 81 1010.9
20260505204518 6 9 0.0 0.0 0.00 0.00 0.00 80 1010.9
20260505203017 6 9 0.0 0.0 0.00 0.00 0.00 79 1010.8
20260505201522 6 9 0.0 0.0 0.00 0.00 0.00 77 1010.8
20260505200014 6 9 0.0 0.0 0.00 0.00 0.00 75 1010.9
20260505194528 7 9 0.0 0.0 0.00 0.00 0.00 73 1010.8
20260505193029 7 9 0.0 0.0 0.00 0.00 0.00 72 1010.7
20260505191509 7 9 0.0 0.0 0.00 0.00 0.00 69 1010.8
20260505190011 8 9 0.0 0.0 0.00 0.00 0.00 68 1010.7
20260505184507 8 9 0.0 0.0 0.00 0.00 0.00 65 1010.7
20260505183012 9 9 0.0 0.0 0.00 0.00 0.00 62 1010.5
20260505181508 10 360 0.0 0.0 0.00 0.00 0.00 61 1010.6
20260505180006 10 360 0.0 0.0 0.00 0.00 0.00 59 1010.6
20260505174508 10 360 0.0 0.0 0.00 0.00 0.00 58 1010.5
20260505173005 10 13 0.0 0.0 0.00 0.00 0.00 56 1010.5
20260505171505 11 355 0.0 0.0 0.00 0.00 0.00 56 1010.6
20260505170006 11 15 0.0 0.0 0.00 0.00 0.00 56 1010.6
20260505164503 11 346 0.0 0.0 0.00 0.00 0.00 58 1010.7
20260505163002 12 355 0.0 0.0 0.00 0.00 0.00 56 1010.6
20260505161502 11 350 0.0 0.0 0.00 0.00 0.00 61 1010.6
20260505153100 12 360 0.0 0.0 0.00 0.00 0.00 64 1010.8
20260505151558 12 33 0.0 0.0 0.00 0.00 0.00 64 1010.7
20260505124551 12 9 0.0 0.0 0.00 0.00 0.00 63 1010.8
20260505123108 12 323 1.6 0.0 0.00 0.00 0.00 65 1010.9
20260505121550 11 306 3.2 0.0 0.00 0.00 0.00 68 1010.9
20260505120050 11 5 1.6 0.0 0.00 0.00 0.00 66 1010.9
20260505114610 12 334 1.6 0.0 0.00 0.00 0.00 65 1010.9